Regional Weather Roundup
Issued by NWS Albany, NY

Home | Current Version | Previous Version | Text Only | Print | Product List | Glossary On
Versions: 1 2 3 4 5 6 7 8 9 10 11 12 13 14 15 16 17 18 19 20 21 22 23 24 25 26 27 28 29 30 31 32 33 34 35 36 37 38 39 40 41 42 43 44 45 46 47 48 49 50
083
ASUS41 KALY 242110
RWRALY

NEW YORK STATE HOURLY WEATHER ROUNDUP
NATIONAL WEATHER SERVICE ALBANY NY
500 PM EDT SUN JUL 24 2016

NOTE: "FAIR" INDICATES FEW OR NO CLOUDS BELOW 12,000 FEET WITH NO
SIGNIFICANT WEATHER AND/OR NO OBSTRUCTIONS TO VISIBILITY.

NYZ032-033-038>043-046>054-057>066-NYZ062>081-082-084-242200-
EAST


CITY           SKY/WX    TMP DP  RH WIND       PRES   REMARKS
ALBANY         MOSUNNY   87  56  34 NE5       29.95S
GLENS FALLS    SUNNY     82  62  50 VRB5      29.95F
POUGHKEEPSIE   MOSUNNY   93  56  28 SE6       29.92S HX  91
NEWBURGH       MOSUNNY   91  55  29 W12       29.95S
MONTGOMERY     MOSUNNY   93  58  30 NW10      29.93S HX  92
WHITE PLAINS   MOSUNNY   87  62  43 S10       29.94R
ISLIP          PTSUNNY   83  65  54 SW9       29.95S
NEW YORK CITY  PTSUNNY   88  64  44 SE17      29.93S
CENTRAL PARK   SUNNY     88  63  43 VRB6      29.96R
$$

NYZ005>009-017-018-044>046-055-056-242200-
CENTRAL


CITY           SKY/WX    TMP DP  RH WIND       PRES   REMARKS
FULTON         CLOUDY    83  56  39 N8        29.97F
SYRACUSE       CLOUDY    82  60  47 N7        29.95F
ROME           MOSUNNY   83  59  44 CALM      29.97S
ELMIRA         PTSUNNY   93  53  25 SW10      29.93F HX  90
BINGHAMTON     CLOUDY    86  55  34 SE7       30.00S
MONTICELLO     MOSUNNY   84  57  39 W5        30.02S
$$

NYZ026>034-041>043-087-242200-
NORTH


CITY           SKY/WX    TMP DP  RH WIND       PRES   REMARKS
WATERTOWN      CLOUDY    83  54  36 W9        29.96S
FORT DRUM      NOT AVBL
MASSENA        SUNNY     79  56  45 N7        29.98S
SARANAC LAKE   SUNNY     77  47  34 CALM      30.00S
PLATTSBURGH    MOSUNNY   75  59  57 E6        29.97S
$$

NYZ001>004-010>016-019>021-085-242200-
WEST


CITY           SKY/WX    TMP DP  RH WIND       PRES   REMARKS
NIAGARA FALLS  CLOUDY    87  54  32 SW8       29.94F
BUFFALO        CLOUDY    85  52  32 SW7       29.95F
DUNKIRK        CLOUDY    83  61  47 NW5       29.96S
JAMESTOWN      MOSUNNY   81  63  54 S6        30.02S
WELLSVILLE     PTSUNNY   86  48  26 W8        30.05S
ROCHESTER      PTSUNNY   83  64  52 E9        29.95F
PENN YAN       CLOUDY    86  59  39 VRB3      29.98S
$$

             KEY
       WCI = WIND CHILL INDEX
       VSB = VISIBILITY
       HX  = HEAT INDEX
$$




USA.gov is the U.S. government's official web portal to all federal, state and local government web resources and services.